Time,TemperatureF,DewpointF,PressureIn,WindDirection,WindDirectionDegrees,WindSpeedMPH,WindSpeedGustMPH,Humidity,HourlyPrecipIn,Conditions,Clouds,dailyrainin,SoftwareType,DateUTC
2013-02-07 00:02:00,24.0,2.0,-100.00,NE,50,3.0,8.0,37,0.00,,,-99.99,,2013-02-07 05:02:00,
2013-02-07 00:12:00,24.0,0.0,-100.00,North,355,2.0,12.0,36,0.00,,,-99.99,,2013-02-07 05:12:00,
2013-02-07 00:21:00,23.0,1.0,-100.00,NE,35,2.0,11.0,36,0.00,,,-99.99,,2013-02-07 05:21:00,
2013-02-07 00:32:00,23.0,1.0,-100.00,East,80,2.0,11.0,37,0.00,,,-99.99,,2013-02-07 05:32:00,
2013-02-07 00:42:00,22.0,1.0,-100.00,ENE,60,4.0,8.0,38,0.00,,,-99.99,,2013-02-07 05:42:00,
2013-02-07 00:52:00,22.0,0.0,-100.00,NNW,330,2.0,7.0,38,0.00,,,-99.99,,2013-02-07 05:52:00,
2013-02-07 01:02:00,22.0,0.0,-100.00,NE,50,4.0,7.0,38,0.00,,,-99.99,,2013-02-07 06:02:00,
2013-02-07 01:11:00,21.0,-1.0,-100.00,East,90,2.0,7.0,37,0.00,,,-99.99,,2013-02-07 06:11:00,
2013-02-07 01:22:00,21.0,-2.0,-100.00,North,5,4.0,10.0,35,0.00,,,-99.99,,2013-02-07 06:22:00,
2013-02-07 01:32:00,20.0,-3.0,-100.00,North,0,3.0,9.0,34,0.00,,,-99.99,,2013-02-07 06:32:00,
2013-02-07 01:43:00,20.0,-3.0,-100.00,NNW,340,2.0,6.0,34,0.00,,,-99.99,,2013-02-07 06:43:00,
2013-02-07 01:52:00,20.0,-4.0,-100.00,North,0,1.0,4.0,34,0.00,,,-99.99,,2013-02-07 06:52:00,
2013-02-07 02:02:00,20.0,-5.0,-100.00,ENE,65,3.0,7.0,32,0.00,,,-99.99,,2013-02-07 07:02:00,
2013-02-07 02:11:00,20.0,-5.0,-100.00,North,0,1.0,5.0,32,0.00,,,-99.99,,2013-02-07 07:11:00,
2013-02-07 02:22:00,19.0,-4.0,-100.00,ENE,60,1.0,6.0,34,0.00,,,-99.99,,2013-02-07 07:22:00,
2013-02-07 02:32:00,19.0,-4.0,-100.00,North,350,1.0,5.0,34,0.00,,,-99.99,,2013-02-07 07:32:00,
2013-02-07 02:42:00,19.0,-5.0,-100.00,NNE,25,1.0,7.0,33,0.00,,,-99.99,,2013-02-07 07:42:00,
2013-02-07 02:52:00,19.0,-5.0,-100.00,NE,55,2.0,4.0,34,0.00,,,-99.99,,2013-02-07 07:52:00,
2013-02-07 03:02:00,18.0,-5.0,-100.00,East,90,0.0,4.0,34,0.00,,,-99.99,,2013-02-07 08:02:00,
2013-02-07 03:11:00,18.0,-5.0,-100.00,NE,55,1.0,6.0,35,0.00,,,-99.99,,2013-02-07 08:11:00,
2013-02-07 03:22:00,18.0,-5.0,-100.00,NE,55,1.0,4.0,35,0.00,,,-99.99,,2013-02-07 08:22:00,
2013-02-07 03:32:00,18.0,-4.0,-100.00,East,90,1.0,2.0,37,0.00,,,-99.99,,2013-02-07 08:32:00,
2013-02-07 03:42:00,18.0,-5.0,-100.00,NNW,340,1.0,5.0,36,0.00,,,-99.99,,2013-02-07 08:42:00,
2013-02-07 03:52:00,17.0,-3.0,-100.00,West,270,0.0,2.0,39,0.00,,,-99.99,,2013-02-07 08:52:00,
2013-02-07 04:02:00,17.0,-3.0,-100.00,NE,45,1.0,3.0,41,0.00,,,-99.99,,2013-02-07 09:02:00,
2013-02-07 04:11:00,16.0,-3.0,-100.00,North,350,0.0,2.0,41,0.00,,,-99.99,,2013-02-07 09:11:00,
2013-02-07 04:22:00,16.0,-2.0,-100.00,NW,315,0.0,1.0,44,0.00,,,-99.99,,2013-02-07 09:22:00,
2013-02-07 04:32:00,15.0,-2.0,-100.00,WNW,290,1.0,2.0,46,0.00,,,-99.99,,2013-02-07 09:32:00,
2013-02-07 04:42:00,15.0,-1.0,-100.00,WNW,290,1.0,2.0,48,0.00,,,-99.99,,2013-02-07 09:42:00,
2013-02-07 04:52:00,15.0,0.0,-100.00,SE,145,0.0,2.0,51,0.00,,,-99.99,,2013-02-07 09:52:00,
2013-02-07 05:02:00,14.0,0.0,-100.00,SSE,155,1.0,3.0,52,0.00,,,-99.99,,2013-02-07 10:02:00,
2013-02-07 05:11:00,14.0,-1.0,-100.00,North,355,1.0,2.0,51,0.00,,,-99.99,,2013-02-07 10:11:00,
2013-02-07 05:22:00,14.0,0.0,-100.00,West,280,1.0,2.0,54,0.00,,,-99.99,,2013-02-07 10:22:00,
2013-02-07 05:32:00,14.0,0.0,-100.00,NNW,335,1.0,4.0,52,0.00,,,-99.99,,2013-02-07 10:32:00,
2013-02-07 05:42:00,14.0,0.0,-100.00,NNW,340,1.0,2.0,53,0.00,,,-99.99,,2013-02-07 10:42:00,
2013-02-07 05:52:00,14.0,0.0,-100.00,West,260,0.0,3.0,51,0.00,,,-99.99,,2013-02-07 10:52:00,
2013-02-07 06:02:00,14.0,-1.0,-100.00,North,10,1.0,4.0,49,0.00,,,-99.99,,2013-02-07 11:02:00,
2013-02-07 06:11:00,15.0,-1.0,-100.00,NNW,340,2.0,4.0,47,0.00,,,-99.99,,2013-02-07 11:11:00,
2013-02-07 06:23:00,15.0,-2.0,-100.00,NW,320,2.0,4.0,47,0.00,,,-99.99,,2013-02-07 11:23:00,
2013-02-07 06:32:00,15.0,-2.0,-100.00,WNW,300,1.0,4.0,47,0.00,,,-99.99,,2013-02-07 11:32:00,
2013-02-07 06:44:00,15.0,-1.0,-100.00,NW,320,2.0,4.0,48,0.00,,,-99.99,,2013-02-07 11:44:00,
2013-02-07 06:52:00,14.0,-2.0,-100.00,WNW,300,2.0,4.0,48,0.00,,,-99.99,,2013-02-07 11:52:00,
2013-02-07 07:02:00,14.0,-1.0,-100.00,North,10,0.0,4.0,50,0.00,,,-99.99,,2013-02-07 12:02:00,
2013-02-07 07:12:00,13.0,1.0,-100.00,SE,135,0.0,1.0,56,0.00,,,-99.99,,2013-02-07 12:12:00,
2013-02-07 07:22:00,13.0,-1.0,-100.00,WNW,300,1.0,3.0,52,0.00,,,-99.99,,2013-02-07 12:22:00,
2013-02-07 07:33:00,14.0,1.0,-100.00,SE,145,1.0,4.0,54,0.00,,,-99.99,,2013-02-07 12:33:00,
2013-02-07 07:42:00,14.0,0.0,-100.00,SSE,155,1.0,3.0,53,0.00,,,-99.99,,2013-02-07 12:42:00,
2013-02-07 07:53:00,14.0,-1.0,-100.00,NNE,15,1.0,4.0,50,0.00,,,-99.99,,2013-02-07 12:53:00,
2013-02-07 08:03:00,14.0,-1.0,-100.00,NW,315,1.0,4.0,49,0.00,,,-99.99,,2013-02-07 13:03:00,
2013-02-07 08:12:00,15.0,-2.0,-100.00,NNW,335,4.0,7.0,45,0.00,,,-99.99,,2013-02-07 13:12:00,
2013-02-07 08:22:00,15.0,-2.0,-100.00,NNW,330,4.0,9.0,44,0.00,,,-99.99,,2013-02-07 13:22:00,
2013-02-07 08:32:00,15.0,-3.0,-100.00,NW,325,4.0,7.0,43,0.00,,,-99.99,,2013-02-07 13:32:00,
2013-02-07 08:42:00,16.0,-3.0,-100.00,NNW,330,7.0,10.0,42,0.00,,,-99.99,,2013-02-07 13:42:00,
2013-02-07 08:52:00,17.0,-3.0,-100.00,NW,315,4.0,9.0,41,0.00,,,-99.99,,2013-02-07 13:52:00,
2013-02-07 09:02:00,17.0,-3.0,-100.00,NNW,330,5.0,11.0,40,0.00,,,-99.99,,2013-02-07 14:02:00,
2013-02-07 09:11:00,17.0,-3.0,-100.00,NNW,335,7.0,13.0,39,0.00,,,-99.99,,2013-02-07 14:11:00,
2013-02-07 09:22:00,18.0,-3.0,-100.00,NNW,335,6.0,10.0,38,0.00,,,-99.99,,2013-02-07 14:22:00,
2013-02-07 09:32:00,19.0,-3.0,-100.00,NW,325,5.0,12.0,36,0.00,,,-99.99,,2013-02-07 14:32:00,
2013-02-07 09:42:00,19.0,-4.0,-100.00,NNW,335,5.0,16.0,36,0.00,,,-99.99,,2013-02-07 14:42:00,
2013-02-07 09:52:00,20.0,-4.0,-100.00,NNW,335,6.0,14.0,34,0.00,,,-99.99,,2013-02-07 14:52:00,
2013-02-07 10:02:00,20.0,-4.0,-100.00,NNW,345,6.0,16.0,33,0.00,,,-99.99,,2013-02-07 15:02:00,
2013-02-07 10:11:00,21.0,-4.0,-100.00,ENE,65,3.0,9.0,33,0.00,,,-99.99,,2013-02-07 15:11:00,
2013-02-07 10:22:00,20.0,-5.0,-100.00,ENE,65,6.0,14.0,32,0.00,,,-99.99,,2013-02-07 15:22:00,
2013-02-07 10:32:00,21.0,-4.0,-100.00,North,350,4.0,13.0,32,0.00,,,-99.99,,2013-02-07 15:32:00,
2013-02-07 10:42:00,21.0,-5.0,-100.00,NNE,30,5.0,12.0,31,0.00,,,-99.99,,2013-02-07 15:42:00,
2013-02-07 10:52:00,21.0,-5.0,-100.00,NNW,345,3.0,16.0,31,0.00,,,-99.99,,2013-02-07 15:52:00,
2013-02-07 11:01:00,21.0,-5.0,-100.00,North,10,4.0,16.0,31,0.00,,,-99.99,,2013-02-07 16:01:00,
2013-02-07 11:11:00,22.0,-5.0,-100.00,North,355,2.0,14.0,29,0.00,,,-99.99,,2013-02-07 16:11:00,
2013-02-07 11:22:00,23.0,-4.0,-100.00,NNW,345,3.0,14.0,29,0.00,,,-99.99,,2013-02-07 16:22:00,
2013-02-07 11:32:00,23.0,-5.0,-100.00,North,355,4.0,12.0,29,0.00,,,-99.99,,2013-02-07 16:32:00,
2013-02-07 11:42:00,23.0,-5.0,-100.00,East,80,4.0,14.0,29,0.00,,,-99.99,,2013-02-07 16:42:00,
2013-02-07 11:52:00,22.0,-5.0,-100.00,NNW,330,9.0,16.0,29,0.00,,,-99.99,,2013-02-07 16:52:00,
2013-02-07 12:01:00,24.0,-5.0,-100.00,NNW,330,6.0,14.0,28,0.00,,,-99.99,,2013-02-07 17:01:00,
2013-02-07 12:11:00,24.0,-6.0,-100.00,NE,55,4.0,9.0,26,0.00,,,-99.99,,2013-02-07 17:11:00,
2013-02-07 12:22:00,24.0,-4.0,-100.00,NNW,335,6.0,9.0,28,0.00,,,-99.99,,2013-02-07 17:22:00,
2013-02-07 12:32:00,24.0,-5.0,-100.00,NE,35,3.0,13.0,27,0.00,,,-99.99,,2013-02-07 17:32:00,
2013-02-07 12:43:00,24.0,-6.0,-100.00,NE,55,5.0,12.0,26,0.00,,,-99.99,,2013-02-07 17:43:00,
2013-02-07 12:52:00,24.0,-5.0,-100.00,North,350,6.0,16.0,27,0.00,,,-99.99,,2013-02-07 17:52:00,
2013-02-07 13:02:00,24.0,-5.0,-100.00,NNW,345,5.0,12.0,27,0.00,,,-99.99,,2013-02-07 18:02:00,
2013-02-07 13:12:00,25.0,-5.0,-100.00,North,5,6.0,17.0,26,0.00,,,-99.99,,2013-02-07 18:12:00,
2013-02-07 13:23:00,25.0,-6.0,-100.00,NNW,340,4.0,13.0,24,0.00,,,-99.99,,2013-02-07 18:23:00,
2013-02-07 13:32:00,25.0,-6.0,-100.00,North,355,6.0,12.0,24,0.00,,,-99.99,,2013-02-07 18:32:00,
2013-02-07 13:42:00,25.0,-5.0,-100.00,NW,325,7.0,14.0,25,0.00,,,-99.99,,2013-02-07 18:42:00,
2013-02-07 13:52:00,26.0,-5.0,-100.00,North,0,3.0,13.0,24,0.00,,,-99.99,,2013-02-07 18:52:00,
2013-02-07 14:02:00,26.0,-6.0,-100.00,NE,50,9.0,14.0,24,0.00,,,-99.99,,2013-02-07 19:02:00,
2013-02-07 14:11:00,27.0,-5.0,-100.00,NE,55,4.0,11.0,24,0.00,,,-99.99,,2013-02-07 19:11:00,
2013-02-07 14:22:00,26.0,-5.0,-100.00,NE,35,3.0,10.0,24,0.00,,,-99.99,,2013-02-07 19:22:00,
2013-02-07 14:32:00,27.0,-5.0,-100.00,North,5,3.0,10.0,24,0.00,,,-99.99,,2013-02-07 19:32:00,
2013-02-07 14:42:00,27.0,-5.0,-100.00,NE,40,2.0,8.0,23,0.00,,,-99.99,,2013-02-07 19:42:00,
2013-02-07 14:52:00,26.0,-6.0,-100.00,NE,55,4.0,13.0,24,0.00,,,-99.99,,2013-02-07 19:52:00,
2013-02-07 15:01:00,26.0,-6.0,-100.00,ENE,65,5.0,12.0,24,0.00,,,-99.99,,2013-02-07 20:01:00,
2013-02-07 15:11:00,27.0,-6.0,-100.00,ESE,105,2.0,9.0,23,0.00,,,-99.99,,2013-02-07 20:11:00,
2013-02-07 15:22:00,26.0,-6.0,-100.00,NE,55,3.0,6.0,24,0.00,,,-99.99,,2013-02-07 20:22:00,
2013-02-07 15:32:00,26.0,-5.0,-100.00,NNW,340,2.0,5.0,24,0.00,,,-99.99,,2013-02-07 20:32:00,
2013-02-07 15:42:00,26.0,-5.0,-100.00,NNE,20,1.0,7.0,25,0.00,,,-99.99,,2013-02-07 20:42:00,
2013-02-07 15:52:00,26.0,-5.0,-100.00,East,95,2.0,5.0,25,0.00,,,-99.99,,2013-02-07 20:52:00,
2013-02-07 16:02:00,26.0,-5.0,-100.00,North,355,1.0,3.0,25,0.00,,,-99.99,,2013-02-07 21:02:00,
2013-02-07 16:11:00,26.0,-5.0,-100.00,ENE,75,2.0,6.0,25,0.00,,,-99.99,,2013-02-07 21:11:00,
2013-02-07 16:22:00,26.0,-5.0,-100.00,NE,45,1.0,3.0,25,0.00,,,-99.99,,2013-02-07 21:22:00,
2013-02-07 16:32:00,26.0,-5.0,-100.00,ENE,70,2.0,4.0,25,0.00,,,-99.99,,2013-02-07 21:32:00,
2013-02-07 16:42:00,26.0,-6.0,-100.00,ENE,70,3.0,4.0,24,0.00,,,-99.99,,2013-02-07 21:42:00,
2013-02-07 16:52:00,26.0,-4.0,-100.00,East,95,2.0,6.0,27,0.00,,,-99.99,,2013-02-07 21:52:00,
2013-02-07 17:02:00,26.0,-5.0,-100.00,SE,135,1.0,4.0,25,0.00,,,-99.99,,2013-02-07 22:02:00,
2013-02-07 17:11:00,25.0,-3.0,-100.00,East,90,1.0,4.0,28,0.00,,,-99.99,,2013-02-07 22:11:00,
2013-02-07 17:22:00,25.0,-5.0,-100.00,NE,55,2.0,4.0,25,0.00,,,-99.99,,2013-02-07 22:22:00,
2013-02-07 17:32:00,25.0,-4.0,-100.00,ENE,75,4.0,6.0,27,0.00,,,-99.99,,2013-02-07 22:32:00,
2013-02-07 17:42:00,25.0,-5.0,-100.00,East,85,2.0,5.0,26,0.00,,,-99.99,,2013-02-07 22:42:00,
2013-02-07 17:52:00,24.0,-4.0,-100.00,ENE,60,1.0,4.0,27,0.00,,,-99.99,,2013-02-07 22:52:00,
2013-02-07 18:02:00,24.0,-5.0,-100.00,ENE,65,2.0,4.0,26,0.00,,,-99.99,,2013-02-07 23:02:00,
2013-02-07 18:11:00,24.0,-5.0,-100.00,East,100,2.0,3.0,27,0.00,,,-99.99,,2013-02-07 23:11:00,
2013-02-07 18:22:00,24.0,-7.0,-100.00,East,80,2.0,4.0,24,0.00,,,-99.99,,2013-02-07 23:22:00,
2013-02-07 18:32:00,24.0,-7.0,-100.00,East,80,2.0,4.0,24,0.00,,,-99.99,,2013-02-07 23:32:00,
2013-02-07 18:42:00,24.0,-5.0,-100.00,East,90,2.0,4.0,26,0.00,,,-99.99,,2013-02-07 23:42:00,
2013-02-07 18:52:00,24.0,-7.0,-100.00,East,90,1.0,6.0,25,0.00,,,-99.99,,2013-02-07 23:52:00,
2013-02-07 19:02:00,24.0,-6.0,-100.00,ESE,110,1.0,2.0,25,0.00,,,-99.99,,2013-02-08 00:02:00,
2013-02-07 19:11:00,24.0,-6.0,-100.00,ESE,120,1.0,2.0,26,0.00,,,-99.99,,2013-02-08 00:11:00,
2013-02-07 19:22:00,24.0,-7.0,-100.00,ESE,105,1.0,4.0,25,0.00,,,-99.99,,2013-02-08 00:22:00,
2013-02-07 19:32:00,24.0,-7.0,-100.00,SE,125,1.0,3.0,25,0.00,,,-99.99,,2013-02-08 00:32:00,
2013-02-07 19:42:00,23.0,-6.0,-100.00,SSE,155,0.0,2.0,26,0.00,,,-99.99,,2013-02-08 00:42:00,
2013-02-07 19:52:00,23.0,-7.0,-100.00,ESE,120,1.0,4.0,25,0.00,,,-99.99,,2013-02-08 00:52:00,
2013-02-07 20:02:00,23.0,-6.0,-100.00,East,90,1.0,2.0,26,0.00,,,-99.99,,2013-02-08 01:02:00,
2013-02-07 20:11:00,23.0,-6.0,-100.00,ESE,120,1.0,2.0,27,0.00,,,-99.99,,2013-02-08 01:11:00,
2013-02-07 20:21:00,23.0,-6.0,-100.00,East,100,0.0,2.0,27,0.00,,,-99.99,,2013-02-08 01:21:00,
2013-02-07 20:32:00,23.0,-7.0,-100.00,ENE,70,1.0,2.0,26,0.00,,,-99.99,,2013-02-08 01:32:00,
2013-02-07 20:42:00,23.0,-6.0,-100.00,NE,55,2.0,4.0,26,0.00,,,-99.99,,2013-02-08 01:42:00,
2013-02-07 20:51:00,23.0,-5.0,-100.00,East,90,1.0,4.0,27,0.00,,,-99.99,,2013-02-08 01:51:00,
2013-02-07 21:01:00,23.0,-6.0,-100.00,East,100,1.0,4.0,26,0.00,,,-99.99,,2013-02-08 02:01:00,
2013-02-07 21:11:00,23.0,-7.0,-100.00,East,100,1.0,3.0,25,0.00,,,-99.99,,2013-02-08 02:11:00,
2013-02-07 21:22:00,23.0,-6.0,-100.00,East,90,1.0,4.0,26,0.00,,,-99.99,,2013-02-08 02:22:00,
2013-02-07 21:32:00,23.0,-7.0,-100.00,East,100,1.0,2.0,25,0.00,,,-99.99,,2013-02-08 02:32:00,
2013-02-07 21:42:00,23.0,-7.0,-100.00,South,175,1.0,4.0,26,0.00,,,-99.99,,2013-02-08 02:42:00,
2013-02-07 21:52:00,23.0,-6.0,-100.00,ESE,105,1.0,4.0,26,0.00,,,-99.99,,2013-02-08 02:52:00,
2013-02-07 22:02:00,23.0,-5.0,-100.00,East,100,1.0,2.0,28,0.00,,,-99.99,,2013-02-08 03:02:00,
2013-02-07 22:12:00,23.0,-6.0,-100.00,ESE,110,1.0,4.0,27,0.00,,,-99.99,,2013-02-08 03:12:00,
2013-02-07 22:22:00,23.0,-5.0,-100.00,East,80,1.0,2.0,28,0.00,,,-99.99,,2013-02-08 03:22:00,
2013-02-07 22:32:00,23.0,-4.0,-100.00,ESE,105,1.0,3.0,29,0.00,,,-99.99,,2013-02-08 03:32:00,
2013-02-07 22:42:00,23.0,-4.0,-100.00,ENE,65,1.0,4.0,29,0.00,,,-99.99,,2013-02-08 03:42:00,
2013-02-07 22:52:00,23.0,-4.0,-100.00,ENE,70,2.0,4.0,29,0.00,,,-99.99,,2013-02-08 03:52:00,
2013-02-07 23:02:00,23.0,-3.0,-100.00,ENE,70,1.0,4.0,31,0.00,,,-99.99,,2013-02-08 04:02:00,
2013-02-07 23:11:00,23.0,-3.0,-100.00,East,90,1.0,2.0,30,0.00,,,-99.99,,2013-02-08 04:11:00,
2013-02-07 23:21:00,23.0,-2.0,-100.00,East,100,0.0,2.0,32,0.00,,,-99.99,,2013-02-08 04:21:00,
2013-02-07 23:32:00,23.0,-3.0,-100.00,NE,45,1.0,2.0,31,0.00,,,-99.99,,2013-02-08 04:32:00,
2013-02-07 23:42:00,23.0,-2.0,-100.00,East,85,1.0,2.0,33,0.00,,,-99.99,,2013-02-08 04:42:00,
2013-02-07 23:51:00,23.0,-2.0,-100.00,NNE,30,0.0,2.0,32,0.00,,,-99.99,,2013-02-08 04:51:00,